Location: Asheville, NC
(35.6000°N, 82.5500°W)
Time: 07:06:33
(UTC-04:00)

Vanguard 3 - Pass Details

Date: 16 February 2018
Orbit: 508 x 3264 km, 33.4° (Epoch: 20 May)

Event Time Altitude Azimuth Distance (km) Brightness Sun altitude
Rises 20:02:38 0° 271° (W) 2,628 11.3 -22.8°
Reaches altitude 10° 20:04:35 10° 267° (W) 1,817 10.1 -23.2°
Maximum altitude 20:08:28 59° 187° (S) 765 6.9 -24.0°
Enters shadow 20:08:54 56° 162° (SSE) 805 6.9 -24.1°
Drops below altitude 10° 20:14:13 10° 109° (ESE) 2,656 - -25.2°
Sets 20:17:37 0° 106° (ESE) 4,008 - -25.9°
